Overview Statistics Trail Chart Weather Telemetry Raw packets
 

This is the latest recevied weather packets stored in our database for station/object R2AKT-13. If no packets are shown the sender has not sent any weather packets the latest 10 day(s).

<< 51 52 53 54 55 56 57 >>
Time Temp. Humidity Pressure Rain* Wind** Luminosity Snow
1788011416 20.56° C 53% 999.2 hPa - 0 m/s - -
1788010838 20° C 54% 999.2 hPa - 0.45 m/s, 259° - -
1788010301 20° C 55% 999.4 hPa - 0.89 m/s, 198° - -
1788009766 18.33° C 62% 999.5 hPa - 0.89 m/s, 203° - -
1788009216 18.89° C 61% 999.6 hPa - 0.89 m/s, 223° - -
1788008616 19.44° C 57% 999.6 hPa - 0.45 m/s, 179° - -
1788008041 20° C 54% 999.6 hPa - 0.89 m/s, 160° - -
1788007555 19.44° C 56% 999.7 hPa - 0 m/s - -
1788007009 18.89° C 60% 999.8 hPa - 0.45 m/s, 234° - -
1788006431 18.89° C 60% 999.8 hPa - 0.89 m/s, 267° - -
1788005942 18.89° C 59% 999.9 hPa - 0.45 m/s, 242° - -
1788005431 19.44° C 57% 999.9 hPa - 0 m/s - -
1788004931 19.44° C 57% 1000 hPa - 0.45 m/s, 250° - -
1788004331 19.44° C 56% 1000 hPa - 0.89 m/s, 267° - -
1788003741 20° C 54% 1000.1 hPa - 0 m/s - -
1788003231 20.56° C 52% 1000.2 hPa - 0.45 m/s, 246° - -
1788002686 20° C 55% 1000.2 hPa - 0.45 m/s, 268° - -
1788002106 19.44° C 54% 1000.2 hPa - 0.45 m/s, 217° - -
1788001586 19.44° C 54% 1000.3 hPa - 0.45 m/s, 291° - -
1788001031 19.44° C 54% 1000.4 hPa - 0.45 m/s, 255° - -
1788000551 19.44° C 52% 1000.5 hPa - 0.89 m/s, 269° - -
1788000066 19.44° C 53% 1000.4 hPa - 0.45 m/s, 264° - -
1787999501 20.56° C 51% 1000.5 hPa - 0.45 m/s, 147° - -
1787999001 21.11° C 48% 1000.6 hPa - 0.45 m/s, 212° - -
1787998466 20° C 53% 1000.6 hPa - 0.89 m/s, 258° - -

* Rain since midnight (hover to see other rain measurements)
** Current wind speed in m/s (hover to see current wind gust speed)